1503968401.02,58753,19.06,74174.3,0.17,-33.49,-33.89,0,*4B
1503968402.28,58754,19.06,74172.8,0.17,-33.61,-33.89,0,*46
1503968403.51,58755,19.06,74176.3,0.17,-33.89,-34.41,0,*42
1503968404.76,58756,19.06,74172.5,0.17,-33.89,-34.35,0,*42
1503968406.02,58757,19.06,74172.5,0.17,-33.89,-34.35,0,*43
1503968407.28,58758,19.06,74174.3,0.17,-33.89,-34.35,0,*4C
1503968408.52,58759,19.06,74172.8,0.17,-33.77,-34.07,0,*4D
1503968409.71,58760,19.06,74174.0,0.15,-33.67,-34.07,0,*44
1503968410.94,58761,19.06,74172.3,0.15,-33.67,-33.89,0,*44
1503968412.2,58762,19.06,74176.5,0.17,-33.49,-33.77,0,*48
1503968413.47,58763,19.06,74174.0,0.17,-33.61,-33.77,0,*43
1503968414.74,58764,19.06,74174.5,0.17,-33.49,-33.77,0,*4E
1503968415.98,58765,19.06,74174.5,0.17,-33.49,-33.67,0,*4E
1503968417.22,58766,19.06,74172.8,0.19,-33.27,-33.61,0,*4D
1503968418.46,58767,19.06,74172.0,0.21,-33.27,-33.55,0,*40
1503968419.68,58768,19.06,74176.0,0.19,-33.55,-33.73,0,*45
1503968420.92,58769,19.06,74176.8,0.19,-33.43,-33.77,0,*47
1503968422.15,58770,19.06,74174.8,0.19,-33.73,-33.83,0,*47
1503968423.36,58771,19.06,74174.3,0.19,-33.61,-33.83,0,*45
1503968424.58,58772,19.06,74176.0,0.19,-33.61,-33.83,0,*46
1503968425.8,58773,19.06,74172.3,0.19,-33.73,-34.13,0,*4A
1503968427.03,58774,19.06,74176.3,0.19,-34.01,-34.47,0,*4E
1503968428.24,58775,19.06,74174.8,0.19,-33.95,-34.35,0,*40
1503968429.46,58776,19.06,74174.5,0.19,-33.77,-34.13,0,*4B
1503968430.68,58777,19.06,74174.0,0.19,-33.83,-34.19,0,*4B
1503968431.88,58778,19.06,74176.5,0.19,-33.83,-34.13,0,*4E
1503968433.09,58779,19.06,74174.5,0.17,-33.67,-34.07,0,*4E
1503968434.33,58780,19.06,74176.3,0.17,-33.77,-34.07,0,*49
1503968435.56,58781,19.06,74178.0,0.17,-33.61,-33.83,0,*44
1503968436.81,58782,19.06,74172.8,0.19,-33.61,-34.01,0,*44
1503968438.03,58783,19.06,74176.8,0.17,-33.83,-34.07,0,*41
1503968439.29,58784,19.06,74174.3,0.17,-33.77,-34.19,0,*42
1503968440.53,58785,19.06,74174.3,0.17,-33.67,-33.89,0,*4C
1503968441.74,58786,19.06,74174.8,0.17,-33.83,-34.07,0,*44
1503968443.01,58787,19.06,74172.0,0.17,-33.61,-33.89,0,*48
1503968444.25,58788,19.06,74172.3,0.17,-33.31,-33.67,0,*42
1503968445.49,58789,19.06,74172.0,0.17,-33.27,-33.67,0,*44
1503968446.73,58790,19.06,74172.8,0.17,-33.43,-33.67,0,*4E
1503968447.98,58791,19.06,74176.3,0.19,-33.43,-33.77,0,*40
1503968449.22,58792,19.06,74172.5,0.19,-33.43,-33.61,0,*44
1503968450.44,58793,19.06,74176.3,0.19,-33.37,-33.61,0,*46
1503968451.65,58794,19.06,74172.8,0.19,-33.43,-33.83,0,*4E
1503968452.89,58795,19.06,74174.5,0.19,-33.27,-33.61,0,*41
1503968454.13,58796,19.06,74172.8,0.19,-33.27,-33.61,0,*42
1503968455.37,58797,19.06,74174.5,0.19,-33.43,-33.61,0,*41
1503968456.62,58798,19.06,74174.8,0.19,-33.43,-33.73,0,*4D
1503968457.86,58799,19.06,74174.8,0.19,-33.27,-33.61,0,*4D
1503968459.08,58800,19.06,74172.5,0.21,-33.37,-33.55,0,*4F
1503968460.27,58801,19.06,74176.0,0.19,-33.21,-33.55,0,*42
1503968461.5,58802,19.06,74172.0,0.21,-33.03,-33.37,0,*4E
1503968462.72,58803,19.06,74172.0,0.19,-33.37,-33.61,0,*40
1503968463.96,58804,19.06,74172.8,0.21,-33.37,-33.61,0,*4C
1503968465.18,58805,19.06,74168.0,0.19,-33.37,-33.61,0,*46
1503968466.42,58806,19.06,74172.5,0.21,-33.37,-33.61,0,*4E
1503968467.67,58807,19.0,74168.5,0.21,-33.37,-33.77,0,*48
1503968468.94,58808,19.06,74174.0,0.21,-33.27,-33.73,0,*42
1503968470.18,58809,19.06,74174.0,0.21,-33.55,-33.77,0,*42
1503968471.45,58810,19.06,74174.8,0.21,-33.43,-33.73,0,*49
1503968472.71,58811,19.06,74172.3,0.21,-33.27,-33.61,0,*49
1503968473.97,58812,19.06,74172.0,0.21,-33.27,-33.61,0,*4A
1503968475.19,58813,19.06,74174.0,0.23,-33.15,-33.49,0,*42
1503968476.41,58814,19.06,74172.3,0.23,-33.03,-33.49,0,*42
1503968477.61,58815,19.06,74172.3,0.23,-33.03,-33.37,0,*4A
1503968478.83,58816,19.06,74174.5,0.23,-33.15,-33.31,0,*48
1503968480.02,58817,19.06,74172.8,0.27,-32.91,-33.15,0,*46
1503968481.24,58818,19.06,74172.8,0.23,-32.79,-33.03,0,*4C
1503968482.49,58819,19.06,74176.0,0.27,-32.75,-33.09,0,*4F
1503968483.74,58820,19.06,74170.8,0.27,-32.97,-33.31,0,*42
1503968484.98,58821,19.06,74174.0,0.27,-33.09,-33.31,0,*45
1503968486.23,58822,19.06,74174.8,0.27,-32.79,-32.97,0,*4D
1503968487.45,58823,19.06,74174.3,0.27,-32.79,-33.15,0,*47
1503968488.7,58824,19.06,74174.8,0.27,-32.75,-33.09,0,*41
1503968489.97,58825,19.06,74174.0,0.29,-32.75,-33.09,0,*4E
1503968491.17,58826,19.06,74172.3,0.31,-32.69,-32.91,0,*49
1503968492.45,58827,19.06,74172.3,0.29,-32.79,-33.09,0,*40
1503968493.65,58828,19.06,74168.8,0.31,-32.69,-32.91,0,*47
1503968494.89,58829,19.06,74168.8,0.31,-32.75,-33.09,0,*4B
1503968496.14,58830,19.06,74172.0,0.31,-32.85,-33.27,0,*40
1503968497.36,58831,19.06,74174.8,0.31,-32.85,-33.21,0,*47
1503968498.57,58832,19.0,74168.5,0.33,-32.91,-33.21,0,*43
1503968499.82,58833,19.06,74174.5,0.33,-32.85,-33.37,0,*40
1503968501.09,58834,19.06,74168.3,0.33,-32.85,-33.27,0,*46
1503968502.33,58835,19.06,74172.8,0.35,-32.97,-33.31,0,*45
1503968503.57,58836,19.06,74168.3,0.33,-33.27,-33.55,0,*48
1503968504.79,58837,19.06,74174.3,0.33,-33.21,-33.55,0,*4F
1503968506.05,58838,19.06,74172.5,0.33,-32.85,-33.31,0,*4D
1503968507.27,58839,19.06,74176.3,0.33,-33.03,-33.37,0,*45
1503968508.51,58840,19.06,74172.3,0.33,-32.91,-33.27,0,*40
1503968509.76,58841,19.06,74172.0,0.35,-32.97,-33.31,0,*46
1503968510.97,58842,19.06,74172.0,0.33,-32.91,-33.37,0,*43
1503968512.23,58843,19.06,74174.5,0.33,-33.27,-33.61,0,*4D
1503968513.45,58844,19.06,74172.0,0.35,-32.97,-33.21,0,*42
1503968514.65,58845,19.06,74174.5,0.35,-32.69,-33.15,0,*45
1503968515.91,58846,19.06,74172.0,0.37,-32.97,-33.31,0,*43
1503968517.16,58847,19.06,74174.8,0.37,-32.79,-33.21,0,*43
1503968518.4,58848,19.06,74174.5,0.39,-32.97,-33.27,0,*44
1503968519.64,58849,19.06,74172.8,0.37,-33.15,-33.49,0,*48
1503968520.88,58850,19.06,74174.3,0.37,-33.31,-33.55,0,*4B
1503968522.09,58851,19.06,74174.5,0.37,-33.03,-33.37,0,*4F
1503968523.34,58852,19.06,74172.0,0.39,-33.27,-33.43,0,*47
1503968524.58,58853,19.06,74172.0,0.37,-33.55,-33.89,0,*4B
1503968525.82,58854,19.06,74172.8,0.37,-33.37,-33.61,0,*4E
1503968527.05,58855,19.06,74172.8,0.37,-33.55,-33.77,0,*4C
1503968528.29,58856,19.0,74170.3,0.37,-33.31,-33.55,0,*4D
1503968529.56,58857,19.06,74172.8,0.37,-33.31,-33.61,0,*4B
1503968530.77,58858,19.06,74172.8,0.37,-33.03,-33.37,0,*46
1503968532.04,58859,19.06,74172.3,0.37,-32.97,-33.31,0,*4D
1503968533.28,58860,19.0,74170.3,0.39,-32.97,-33.31,0,*49
1503968534.52,58861,19.06,74174.3,0.37,-33.03,-33.31,0,*4A
1503968535.74,58862,19.06,74172.0,0.39,-33.31,-33.55,0,*44
1503968536.98,58863,19.06,74174.8,0.39,-33.31,-33.89,0,*44
1503968538.2,58864,19.06,74174.5,0.39,-33.55,-34.01,0,*46
1503968539.43,58865,19.06,74174.3,0.37,-33.61,-34.07,0,*48
1503968540.67,58866,19.06,74174.5,0.37,-33.61,-34.13,0,*4E
1503968541.91,58867,19.06,74172.3,0.37,-33.77,-34.13,0,*48
1503968543.16,58868,19.06,74174.5,0.37,-33.89,-34.31,0,*46
1503968544.39,58869,19.06,74174.8,0.37,-33.89,-34.41,0,*40
1503968545.6,58870,19.06,74174.3,0.37,-33.95,-34.41,0,*45
1503968546.8,58871,19.0,74168.8,0.39,-33.89,-34.25,0,*45
1503968548.07,58872,19.06,74172.3,0.37,-33.31,-33.61,0,*4C
1503968549.29,58873,19.06,74172.8,0.35,-33.21,-33.49,0,*44
1503968550.53,58874,19.06,74172.0,0.35,-33.49,-33.89,0,*41
1503968551.75,58875,19.0,74168.0,0.35,-33.61,-33.95,0,*47
1503968552.96,58876,19.06,74172.3,0.35,-33.73,-34.25,0,*4B
1503968554.22,58877,19.06,74174.0,0.37,-33.89,-34.31,0,*48
1503968555.47,58878,19.06,74172.3,0.37,-33.73,-34.13,0,*42
1503968556.7,58879,19.0,74168.3,0.37,-33.77,-34.41,0,*40
1503968557.92,58880,19.06,74170.5,0.35,-33.73,-34.41,0,*40
1503968559.15,58881,19.06,74172.5,0.35,-33.89,-34.31,0,*43
1503968560.36,58882,19.06,74172.0,0.35,-33.89,-34.41,0,*47
1503968561.6,58883,19.06,74174.5,0.33,-33.95,-34.35,0,*4E
1503968562.84,58884,19.06,74174.5,0.33,-34.01,-34.47,0,*46
1503968564.05,58885,19.06,74174.8,0.35,-33.89,-34.41,0,*40
1503968565.3,58886,19.06,74172.3,0.33,-34.01,-34.47,0,*44
1503968566.52,58887,19.06,74174.0,0.33,-34.13,-34.47,0,*46
1503968567.74,58888,19.06,74174.3,0.35,-33.73,-34.07,0,*4A
1503968568.98,58889,19.06,74172.0,0.33,-33.43,-33.83,0,*45
1503968570.22,58890,19.06,74172.3,0.31,-33.61,-34.01,0,*42
1503968571.48,58891,19.06,74174.0,0.33,-33.77,-34.19,0,*4F
1503968572.7,58892,19.06,74178.0,0.33,-33.83,-34.47,0,*4C
1503968573.96,58893,19.06,74172.5,0.33,-33.77,-34.19,0,*4D
1503968575.23,58894,19.0,74168.3,0.33,-33.61,-34.01,0,*44
1503968576.45,58895,19.0,74168.5,0.33,-33.37,-33.67,0,*41
1503968577.68,58896,19.06,74172.8,0.33,-33.61,-34.13,0,*45
1503968578.88,58897,19.0,74170.3,0.31,-33.67,-34.13,0,*40
1503968580.09,58898,19.06,74174.0,0.31,-33.43,-33.83,0,*47
1503968581.31,58899,19.0,74172.5,0.31,-33.43,-33.83,0,*46
1503968582.52,58900,19.06,74174.5,0.33,-33.55,-33.95,0,*45
1503968583.73,58901,19.06,74174.0,0.33,-33.21,-33.55,0,*4B
1503968584.97,58902,19.06,74172.8,0.33,-33.27,-33.67,0,*4F
1503968586.18,58903,19.06,74172.0,0.33,-33.55,-34.13,0,*4F
1503968587.42,58904,19.06,74178.0,0.33,-33.67,-34.19,0,*43
1503968588.63,58905,19.06,74174.3,0.33,-33.67,-34.13,0,*48
1503968589.87,58906,19.06,74172.8,0.33,-33.61,-33.95,0,*44
1503968591.1,58907,19.06,74174.8,0.33,-33.61,-34.13,0,*4C
1503968592.34,58908,19.06,74174.5,0.33,-33.43,-33.83,0,*4D
1503968593.6,58909,19.0,74170.0,0.33,-33.27,-33.61,0,*42
1503968594.85,58910,19.0,74170.0,0.33,-33.09,-33.37,0,*45
1503968596.06,58911,19.06,74174.3,0.35,-32.97,-33.21,0,*43
1503968597.29,58912,19.0,74172.5,0.35,-33.09,-33.37,0,*41
1503968598.53,58913,19.06,74174.3,0.33,-32.91,-33.43,0,*45
1503968599.77,58914,19.06,74172.5,0.35,-32.97,-33.31,0,*47
1503968600.97,58915,19.06,74172.3,0.35,-33.03,-33.37,0,*4C
1503968602.21,58916,19.06,74172.0,0.37,-32.79,-33.21,0,*46
1503968603.43,58917,19.06,74174.3,0.37,-33.15,-33.37,0,*4B
1503968604.66,58918,19.06,74174.0,0.37,-33.15,-33.49,0,*4D
1503968605.93,58919,19.0,74168.8,0.37,-32.63,-32.97,0,*4E
1503968607.17,58920,19.06,74170.5,0.37,-32.63,-33.03,0,*48
1503968608.36,58921,19.06,74174.8,0.39,-32.57,-32.91,0,*4A
1503968609.63,58922,19.0,74170.8,0.37,-32.45,-32.85,0,*41
1503968610.87,58923,19.06,74172.3,0.39,-32.63,-33.09,0,*4F
1503968612.12,58924,19.0,74168.8,0.39,-32.75,-33.09,0,*4F
1503968613.31,58925,19.06,74172.0,0.39,-32.57,-32.91,0,*4E
1503968614.53,58926,19.06,74168.0,0.39,-32.63,-32.91,0,*4A
1503968615.77,58927,19.0,74168.8,0.41,-32.75,-33.03,0,*49
1503968616.97,58928,19.06,74172.8,0.43,-32.69,-33.03,0,*49
1503968618.18,58929,19.06,74174.8,0.43,-32.85,-33.21,0,*4A
1503968619.4,58930,19.06,74170.5,0.45,-32.97,-33.15,0,*40
1503968620.62,58931,19.06,74172.8,0.45,-32.85,-33.15,0,*42
1503968621.8,58932,19.06,74174.3,0.43,-32.91,-33.37,0,*42
1503968623.02,58933,19.06,74174.5,0.43,-33.21,-33.49,0,*40
1503968624.23,58934,19.06,74174.5,0.43,-33.21,-33.49,0,*47
1503968625.45,58935,19.0,74170.0,0.43,-33.09,-33.37,0,*45
1503968626.64,58936,19.06,74172.8,0.43,-33.21,-33.67,0,*49
1503968627.86,58937,19.0,74172.3,0.43,-33.27,-33.67,0,*4E
1503968629.07,58938,19.06,74172.3,0.43,-33.09,-33.37,0,*48
1503968630.29,58939,19.06,74172.8,0.43,-32.85,-33.21,0,*4B
1503968631.51,58940,19.0,74174.5,0.45,-32.79,-33.15,0,*47
1503968632.71,58941,19.06,74174.0,0.45,-33.03,-33.37,0,*4A
1503968633.95,58942,19.06,74172.3,0.45,-32.85,-33.31,0,*40
1503968635.19,58943,19.06,74174.0,0.45,-32.97,-33.31,0,*42
1503968636.42,58944,19.06,74174.0,0.45,-33.37,-33.77,0,*4C
1503968637.61,58945,19.0,74172.3,0.45,-33.55,-34.07,0,*49
1503968638.82,58946,19.06,74174.0,0.45,-33.21,-33.61,0,*4E
1503968640.03,58947,19.06,74174.8,0.45,-33.21,-33.61,0,*4F
1503968641.28,58948,19.0,74170.5,0.45,-32.97,-33.31,0,*49
1503968642.5,58949,19.0,74170.5,0.45,-32.85,-33.15,0,*4D
1503968643.74,58950,19.06,74172.8,0.47,-32.85,-33.21,0,*40
1503968645.01,58951,19.0,74170.0,0.47,-32.85,-33.31,0,*40
1503968646.23,58952,19.0,74174.5,0.45,-32.79,-33.15,0,*44
1503968647.47,58953,19.06,74174.8,0.47,-32.79,-33.15,0,*47
1503968648.72,58954,19.06,74176.3,0.47,-33.15,-33.43,0,*48
1503968649.97,58955,19.06,74178.5,0.47,-33.21,-33.43,0,*4E
1503968651.19,58956,19.0,74174.5,0.47,-33.03,-33.37,0,*4E
1503968652.43,58957,19.06,74174.8,0.47,-32.85,-33.15,0,*40
1503968653.7,58958,19.0,74170.8,0.51,-33.09,-33.31,0,*4B
1503968654.95,58959,19.06,74174.5,0.51,-33.37,-33.73,0,*41
1503968656.16,58960,19.06,74172.8,0.51,-32.91,-33.15,0,*46
1503968657.4,58961,19.0,74174.0,0.53,-32.75,-33.09,0,*42
1503968658.64,58962,19.0,74174.8,0.51,-32.79,-33.15,0,*42
1503968659.89,58963,19.06,74174.3,0.51,-32.79,-33.15,0,*43
1503968661.13,58964,19.06,74174.5,0.51,-33.09,-33.37,0,*42
1503968662.4,58965,19.0,74174.8,0.51,-32.97,-33.31,0,*43
1503968663.64,58966,19.0,74172.5,0.53,-33.09,-33.27,0,*43
1503968664.88,58967,19.06,74174.8,0.53,-32.97,-33.27,0,*44
1503968666.12,58968,19.06,74172.5,0.53,-33.09,-33.27,0,*4D
1503968667.31,58969,19.06,74174.0,0.53,-33.15,-33.37,0,*40
1503968668.58,58970,19.06,74174.0,0.51,-33.27,-33.73,0,*4B
1503968669.79,58971,19.06,74176.3,0.51,-33.15,-33.55,0,*4F
1503968671.01,58972,19.06,74178.0,0.51,-33.37,-33.83,0,*47
1503968672.24,58973,19.0,74174.0,0.51,-33.27,-33.55,0,*4C
1503968673.48,58974,19.06,74176.0,0.53,-32.97,-33.31,0,*41
1503968674.72,58975,19.06,74172.5,0.51,-32.97,-33.15,0,*44
1503968675.93,58976,19.0,74172.3,0.53,-32.91,-33.27,0,*42
1503968677.15,58977,19.06,74176.0,0.53,-33.31,-33.67,0,*4C
1503968678.38,58978,19.06,74176.0,0.53,-33.31,-33.73,0,*46
1503968679.62,58979,19.06,74172.5,0.53,-33.31,-33.73,0,*47
1503968680.86,58980,19.06,74176.0,0.53,-33.31,-33.73,0,*41
1503968682.09,58981,19.06,74176.8,0.53,-33.27,-33.73,0,*47
1503968683.36,58982,19.0,74172.0,0.51,-33.27,-33.73,0,*46
1503968684.62,58983,19.0,74172.5,0.55,-33.27,-33.61,0,*40
1503968685.83,58984,19.06,74172.5,0.53,-33.31,-33.83,0,*4A
1503968687.07,58985,19.0,74170.8,0.53,-33.31,-33.73,0,*44
1503968688.28,58986,19.06,74176.0,0.53,-33.37,-33.89,0,*44
1503968689.54,58987,19.06,74172.5,0.55,-33.31,-33.77,0,*44
1503968690.78,58988,19.0,74174.0,0.55,-33.21,-33.61,0,*4D
1503968691.97,58989,19.06,74174.8,0.53,-33.37,-33.83,0,*41
1503968693.21,58990,19.0,74172.0,0.53,-33.49,-33.89,0,*4A
1503968694.42,58991,19.0,74172.0,0.51,-33.37,-33.83,0,*4A
1503968695.64,58992,19.0,74170.8,0.53,-33.37,-33.89,0,*41
1503968696.85,58993,19.0,74174.0,0.53,-33.31,-33.67,0,*46
1503968698.05,58994,19.06,74174.8,0.53,-33.37,-33.67,0,*47
1503968699.28,58995,19.0,74174.3,0.55,-33.31,-33.83,0,*4C
1503968700.51,58996,19.06,74172.3,0.51,-33.37,-33.67,0,*47
1503968701.75,58997,19.0,74172.3,0.53,-32.97,-33.27,0,*4B
1503968702.99,58998,19.06,74174.0,0.53,-33.09,-33.31,0,*45
1503968704.22,58999,19.0,74174.0,0.53,-33.31,-33.73,0,*49
1503968705.41,59000,19.06,74172.8,0.53,-33.37,-33.83,0,*48
1503968706.65,59001,19.06,74172.8,0.55,-33.43,-33.83,0,*4C
1503968707.89,59002,19.06,74172.5,0.53,-33.49,-33.73,0,*4C
1503968709.1,59003,19.06,74176.8,0.53,-33.31,-33.55,0,*46
1503968710.36,59004,19.0,74172.3,0.55,-33.27,-33.77,0,*40
1503968711.62,59005,19.0,74172.5,0.55,-33.31,-33.77,0,*46
1503968712.86,59006,19.0,74174.0,0.55,-33.31,-33.83,0,*4E
1503968714.1,59007,19.0,74172.3,0.55,-33.27,-33.67,0,*42
1503968715.34,59008,19.0,74172.3,0.55,-33.31,-33.67,0,*4A
1503968716.58,59009,19.06,74176.5,0.55,-33.27,-33.67,0,*4C
1503968717.82,59010,19.0,74170.8,0.55,-33.31,-33.67,0,*43
1503968719.06,59011,19.0,74172.0,0.55,-33.31,-33.83,0,*48
1503968720.29,59012,19.06,74174.3,0.55,-33.61,-34.13,0,*40
1503968721.53,59013,19.06,74172.0,0.55,-33.77,-34.13,0,*46
1503968722.77,59014,19.0,74170.3,0.55,-33.83,-34.31,0,*4A
1503968724.01,59015,19.0,74174.3,0.55,-34.01,-34.47,0,*47
1503968725.21,59016,19.0,74174.0,0.53,-33.89,-34.25,0,*41
1503968726.42,59017,19.06,74174.8,0.53,-33.83,-34.35,0,*4B
1503968727.63,59018,19.0,74170.8,0.51,-33.83,-34.25,0,*47
1503968728.85,59019,19.0,74172.5,0.51,-33.55,-34.07,0,*4D
1503968730.11,59020,19.0,74172.5,0.51,-33.49,-33.89,0,*4B
1503968731.3,59021,19.0,74174.0,0.53,-33.55,-34.07,0,*44
1503968732.48,59022,19.0,74172.5,0.53,-33.67,-34.07,0,*46
1503968733.72,59023,19.0,74170.8,0.53,-33.73,-34.19,0,*4D
1503968734.92,59024,19.06,74174.0,0.53,-33.89,-34.25,0,*40
1503968736.18,59025,19.0,74168.8,0.51,-33.89,-34.35,0,*42
1503968737.36,59026,19.0,74172.3,0.53,-34.07,-34.41,0,*41
1503968738.6,59027,19.0,74168.3,0.51,-34.01,-34.41,0,*44
1503968739.84,59028,19.0,74174.0,0.51,-34.01,-34.41,0,*4B
1503968741.07,59029,19.06,74174.3,0.51,-33.89,-34.41,0,*4D
1503968742.28,59030,19.0,74168.8,0.51,-33.83,-34.25,0,*4D
1503968743.48,59031,19.0,74170.0,0.53,-33.89,-34.25,0,*44
1503968744.72,59032,19.06,74172.3,0.51,-33.67,-34.19,0,*4A
1503968745.93,59033,19.0,74172.5,0.45,-33.89,-34.25,0,*41
1503968747.16,59034,19.06,74172.8,0.47,-33.77,-34.25,0,*45
1503968748.4,59035,19.06,74172.8,0.47,-33.77,-34.25,0,*44
1503968749.65,59036,19.0,74174.5,0.51,-33.89,-34.35,0,*40
1503968750.88,59037,19.0,74168.0,0.47,-34.13,-34.47,0,*47
1503968752.11,59038,19.0,74172.5,0.45,-33.89,-34.31,0,*4F
1503968753.34,59039,19.0,74172.3,0.45,-33.73,-34.13,0,*4B
1503968754.52,59040,19.0,74172.8,0.45,-33.55,-33.95,0,*48
1503968755.74,59041,19.0,74172.3,0.45,-33.61,-34.07,0,*42
1503968756.95,59042,19.0,74170.3,0.45,-33.77,-34.25,0,*46
1503968758.15,59043,19.0,74172.3,0.47,-33.95,-34.41,0,*4B
1503968759.34,59044,19.0,74170.5,0.45,-33.95,-34.41,0,*4E
1503968760.55,59045,19.06,74174.8,0.45,-33.73,-34.25,0,*45
1503968761.77,59046,19.0,74168.8,0.45,-33.73,-34.25,0,*46
1503968762.99,59047,19.0,74172.0,0.43,-33.37,-33.77,0,*41
1503968764.21,59048,19.0,74174.8,0.47,-33.03,-33.37,0,*49
1503968765.41,59049,19.0,74172.8,0.45,-32.69,-33.03,0,*40
1503968766.6,59050,19.0,74174.8,0.45,-32.69,-33.15,0,*4F
1503968767.85,59051,19.0,74174.3,0.47,-32.69,-32.97,0,*47
1503968769.12,59052,19.0,74174.5,0.47,-32.97,-33.31,0,*48
1503968770.36,59053,19.0,74174.3,0.47,-32.97,-33.21,0,*48
1503968771.58,59054,19.0,74174.3,0.45,-32.85,-33.15,0,*49
1503968772.82,59055,19.0,74172.5,0.47,-33.37,-33.73,0,*42
1503968774.07,59056,19.06,74172.8,0.51,-33.09,-33.37,0,*4B
1503968775.34,59057,19.0,74174.0,0.51,-33.09,-33.31,0,*4C
1503968776.6,59058,19.0,74174.0,0.51,-33.27,-33.73,0,*49
1503968777.85,59059,19.0,74178.0,0.51,-32.79,-33.15,0,*42
1503968779.11,59060,19.0,74178.3,0.51,-32.75,-32.97,0,*4F
1503968780.38,59061,19.06,74176.8,0.51,-32.45,-32.79,0,*4D
1503968781.65,59062,19.0,74174.5,0.51,-32.75,-33.09,0,*4B
1503968782.89,59063,19.0,74176.0,0.53,-32.45,-32.75,0,*41
1503968784.11,59064,19.0,74174.8,0.53,-32.57,-33.09,0,*4F
1503968785.35,59065,19.0,74174.5,0.55,-32.91,-33.27,0,*4E
1503968786.56,59066,19.0,74174.8,0.55,-33.03,-33.21,0,*41
1503968787.77,59067,19.0,74174.5,0.55,-32.91,-33.21,0,*4A
1503968789.02,59068,19.0,74172.5,0.55,-32.69,-33.09,0,*48
1503968790.26,59069,19.0,74174.0,0.57,-33.09,-33.31,0,*47
1503968791.49,59070,19.0,74174.0,0.55,-33.21,-33.61,0,*42
1503968792.73,59071,19.06,74174.0,0.55,-33.31,-33.67,0,*44
1503968794.0,59072,19.0,74170.0,0.55,-32.85,-33.09,0,*41
1503968795.24,59073,19.0,74170.3,0.57,-32.75,-33.09,0,*4D
1503968796.46,59074,19.0,74172.3,0.55,-32.69,-33.03,0,*4F
1503968797.7,59075,19.0,74172.5,0.57,-32.75,-33.09,0,*4B
1503968798.94,59076,19.0,74168.5,0.57,-32.75,-33.09,0,*48
1503968800.13,59077,19.0,74168.3,0.57,-32.57,-33.03,0,*43
1503968801.32,59078,19.0,74168.0,0.57,-32.57,-32.91,0,*46
1503968802.58,59079,19.06,74176.3,0.59,-32.79,-32.97,0,*43
1503968803.8,59080,19.0,74172.5,0.61,-32.63,-32.91,0,*43
1503968805.01,59081,19.0,74174.8,0.59,-33.15,-33.55,0,*40
1503968806.2,59082,19.0,74176.0,0.61,-33.21,-33.67,0,*4E
1503968807.44,59083,19.0,74172.8,0.59,-32.97,-33.21,0,*4A
1503968808.68,59084,19.0,74172.5,0.63,-32.79,-33.15,0,*43
1503968809.92,59085,19.0,74174.3,0.63,-32.45,-32.91,0,*40
1503968811.18,59086,19.0,74172.5,0.63,-32.29,-32.79,0,*4F
1503968812.44,59087,19.0,74174.5,0.63,-32.63,-32.97,0,*40
1503968813.68,59088,19.0,74174.8,0.63,-33.09,-33.55,0,*4D
1503968814.9,59089,19.0,74176.0,0.63,-33.21,-33.67,0,*47
1503968816.14,59090,19.0,74176.8,0.63,-32.97,-33.37,0,*46
1503968817.38,59091,19.0,74174.3,0.63,-32.79,-33.15,0,*47
1503968818.64,59092,19.0,74172.8,0.63,-32.97,-33.49,0,*4D
1503968819.84,59093,19.0,74176.0,0.65,-33.15,-33.61,0,*4B
1503968821.08,59094,19.0,74172.8,0.63,-32.97,-33.21,0,*45
1503968822.34,59095,19.0,74178.3,0.63,-32.75,-32.97,0,*44
1503968823.58,59096,19.0,74176.3,0.63,-32.97,-33.15,0,*40
1503968824.81,59097,19.0,74178.0,0.63,-32.91,-33.09,0,*4A
1503968826.06,59098,19.0,74176.5,0.65,-33.09,-33.43,0,*4D
1503968827.32,59099,19.0,74176.5,0.63,-32.79,-32.97,0,*44
1503968828.53,59100,19.06,74176.8,0.65,-32.91,-33.43,0,*4D
1503968829.72,59101,19.0,74172.0,0.65,-32.91,-33.15,0,*4F
1503968830.93,59102,19.0,74174.0,0.63,-32.91,-33.15,0,*4A
1503968832.14,59103,19.0,74172.8,0.65,-33.03,-33.31,0,*41
1503968833.35,59104,19.0,74174.5,0.65,-32.75,-33.03,0,*47
1503968834.57,59105,19.0,74176.0,0.65,-32.85,-33.15,0,*4E
1503968835.78,59106,19.06,74178.8,0.65,-32.91,-33.09,0,*45
1503968836.97,59107,19.0,74178.8,0.65,-32.69,-32.91,0,*43
1503968838.19,59108,19.0,74170.8,0.67,-32.57,-32.91,0,*43
1503968839.43,59109,19.0,74176.5,0.67,-32.75,-33.03,0,*48
1503968840.68,59110,19.0,74178.3,0.67,-32.75,-33.15,0,*47
1503968841.92,59111,19.06,74176.5,0.69,-32.79,-32.97,0,*4F
1503968843.13,59112,19.0,74174.3,0.67,-32.91,-33.15,0,*4F
1503968844.37,59113,19.0,74174.5,0.69,-32.85,-33.09,0,*48
1503968845.61,59114,19.0,74174.5,0.67,-32.91,-33.31,0,*4F
1503968846.85,59115,19.0,74176.3,0.67,-33.03,-33.31,0,*44
1503968848.07,59116,19.0,74172.0,0.69,-33.03,-33.27,0,*4E
1503968849.29,59117,19.0,74170.8,0.69,-33.09,-33.55,0,*40
1503968850.48,59118,19.0,74172.5,0.69,-33.21,-33.55,0,*45
1503968851.66,59119,19.0,74174.3,0.69,-33.21,-33.55,0,*44
1503968852.9,59120,19.0,74174.3,0.69,-33.27,-33.61,0,*4F
1503968854.11,59121,19.0,74170.3,0.69,-33.03,-33.27,0,*4A
1503968855.38,59122,19.0,74170.3,0.67,-33.27,-33.61,0,*43
1503968856.59,59123,19.0,74170.3,0.69,-33.09,-33.37,0,*43
1503968857.83,59124,19.0,74170.5,0.69,-32.79,-32.97,0,*49
1503968859.08,59125,19.0,74170.5,0.69,-32.85,-33.09,0,*4D
1503968860.29,59126,19.0,74174.0,0.69,-32.97,-33.37,0,*40
1503968861.51,59127,19.0,74168.5,0.69,-32.97,-33.37,0,*41
1503968862.74,59128,19.0,74174.0,0.67,-33.15,-33.61,0,*48
1503968863.96,59129,19.0,74170.0,0.69,-33.03,-33.43,0,*40
1503968865.2,59130,19.0,74168.3,0.69,-33.43,-33.89,0,*4A
1503968866.44,59131,19.0,74170.3,0.67,-33.49,-33.95,0,*42
1503968867.65,59132,19.0,74168.3,0.69,-33.37,-33.89,0,*4B
1503968868.87,59133,19.06,74172.8,0.69,-33.73,-34.25,0,*4B
1503968870.14,59134,19.0,74170.0,0.67,-33.49,-34.01,0,*4D
1503968871.38,59135,19.0,74168.5,0.67,-33.49,-33.95,0,*46
1503968872.62,59136,19.06,74174.8,0.67,-33.31,-33.83,0,*4D
1503968873.86,59137,19.0,74166.8,0.67,-33.49,-33.95,0,*44
1503968875.08,59138,19.0,74168.0,0.67,-33.67,-34.13,0,*4E
1503968876.31,59139,19.0,74168.8,0.67,-33.67,-34.19,0,*45
1503968877.58,59140,19.0,74170.8,0.67,-33.61,-34.01,0,*44
1503968878.79,59141,19.0,74168.3,0.65,-33.43,-33.83,0,*4A
1503968880.02,59142,19.0,74172.3,0.67,-33.43,-33.95,0,*4C
1503968881.27,59143,19.0,74170.0,0.67,-33.67,-34.01,0,*41
1503968882.54,59144,19.0,74168.5,0.67,-33.77,-34.01,0,*47
1503968883.75,59145,19.0,74172.3,0.65,-33.67,-34.01,0,*45
1503968884.98,59146,19.06,74174.3,0.65,-33.77,-34.19,0,*4E
1503968886.2,59147,19.06,74174.5,0.63,-33.37,-33.83,0,*49
1503968887.44,59148,19.0,74174.0,0.65,-33.49,-33.77,0,*42
1503968888.67,59149,19.0,74174.3,0.65,-33.27,-33.77,0,*4B
1503968889.91,59150,19.0,74172.0,0.65,-33.27,-33.77,0,*43
1503968891.14,59151,19.06,74176.0,0.65,-33.27,-33.61,0,*45
1503968892.37,59152,19.0,74172.3,0.65,-33.27,-33.61,0,*46
1503968893.58,59153,19.0,74172.5,0.65,-33.15,-33.49,0,*4C
1503968894.82,59154,19.0,74170.0,0.63,-33.31,-33.67,0,*47
1503968896.05,59155,19.0,74168.5,0.65,-33.27,-33.49,0,*4B
1503968897.29,59156,19.0,74174.3,0.65,-33.27,-33.77,0,*45
1503968898.52,59157,19.0,74170.0,0.65,-33.27,-33.61,0,*43
1503968899.73,59158,19.0,74168.8,0.65,-33.27,-33.67,0,*4A
1503968900.97,59159,19.0,74170.3,0.65,-33.27,-33.49,0,*47
1503968902.21,59160,19.0,74170.8,0.65,-33.09,-33.43,0,*4B
1503968903.4,59161,19.0,74170.8,0.65,-33.15,-33.67,0,*41
1503968904.66,59162,19.0,74170.8,0.67,-33.31,-33.77,0,*47